Year,Month,Day,Hour,Minute,Value (Times are PST for temperature in C)
2011,08,17,00,00,12.90
2011,08,17,00,01,12.90
2011,08,17,00,02,12.90
2011,08,17,00,03,12.90
2011,08,17,00,04,12.90
2011,08,17,00,05,12.90
2011,08,17,00,06,12.90
2011,08,17,00,07,12.90
2011,08,17,00,08,12.90
2011,08,17,00,09,12.90
2011,08,17,00,10,12.90
2011,08,17,00,11,12.90
2011,08,17,00,12,12.90
2011,08,17,00,13,12.80
2011,08,17,00,14,12.80
2011,08,17,00,15,12.80
2011,08,17,00,16,12.80
2011,08,17,00,17,12.80
2011,08,17,00,18,12.80
2011,08,17,00,19,12.70
2011,08,17,00,20,12.70
2011,08,17,00,21,12.70
2011,08,17,00,22,12.70
2011,08,17,00,23,12.60
2011,08,17,00,24,12.60
2011,08,17,00,25,12.60
2011,08,17,00,26,12.60
2011,08,17,00,27,12.50
2011,08,17,00,28,12.50
2011,08,17,00,29,12.50
2011,08,17,00,30,12.50
2011,08,17,00,31,12.50
2011,08,17,00,32,12.50
2011,08,17,00,33,12.40
2011,08,17,00,34,12.40
2011,08,17,00,35,12.40
2011,08,17,00,36,12.40
2011,08,17,00,37,12.50
2011,08,17,00,38,12.50
2011,08,17,00,39,12.50
2011,08,17,00,40,12.60
2011,08,17,00,41,12.60
2011,08,17,00,42,12.60
2011,08,17,00,43,12.60
2011,08,17,00,44,12.60
2011,08,17,00,45,12.60
2011,08,17,00,46,12.60
2011,08,17,00,47,12.60
2011,08,17,00,48,12.60
2011,08,17,00,49,12.60
2011,08,17,00,50,12.60
2011,08,17,00,51,12.60
2011,08,17,00,52,12.50
2011,08,17,00,53,12.50
2011,08,17,00,54,12.50
2011,08,17,00,55,12.50
2011,08,17,00,56,12.50
2011,08,17,00,57,12.50
2011,08,17,00,58,12.40
2011,08,17,00,59,12.40
2011,08,17,01,00,12.40
2011,08,17,01,01,12.40
2011,08,17,01,02,12.40
2011,08,17,01,03,12.40
2011,08,17,01,04,12.30
2011,08,17,01,05,12.30
2011,08,17,01,06,12.30
2011,08,17,01,07,12.30
2011,08,17,01,08,12.30
2011,08,17,01,09,12.30
2011,08,17,01,10,12.30
2011,08,17,01,11,12.40
2011,08,17,01,12,12.40
2011,08,17,01,13,12.30
2011,08,17,01,14,12.30
2011,08,17,01,15,12.30
2011,08,17,01,16,12.30
2011,08,17,01,17,12.30
2011,08,17,01,18,12.30
2011,08,17,01,19,12.40
2011,08,17,01,20,12.40
2011,08,17,01,21,12.40
2011,08,17,01,22,12.40
2011,08,17,01,23,12.40
2011,08,17,01,24,12.50
2011,08,17,01,25,12.50
2011,08,17,01,26,12.40
2011,08,17,01,27,12.50
2011,08,17,01,28,12.40
2011,08,17,01,29,12.40
2011,08,17,01,30,12.40
2011,08,17,01,31,12.40
2011,08,17,01,32,12.40
2011,08,17,01,33,12.40
2011,08,17,01,34,12.30
2011,08,17,01,35,12.30
2011,08,17,01,36,12.30
2011,08,17,01,37,12.30
2011,08,17,01,38,12.30
2011,08,17,01,39,12.30
2011,08,17,01,40,12.30
2011,08,17,01,41,12.30
2011,08,17,01,42,12.30
2011,08,17,01,43,12.20
2011,08,17,01,44,12.20
2011,08,17,01,45,12.20
2011,08,17,01,46,12.20
2011,08,17,01,47,12.20
2011,08,17,01,48,12.20
2011,08,17,01,49,12.20
2011,08,17,01,50,12.10
2011,08,17,01,51,12.10
2011,08,17,01,52,12.10
2011,08,17,01,53,12.10
2011,08,17,01,54,12.10
2011,08,17,01,55,12.10
2011,08,17,01,56,12.00
2011,08,17,01,57,12.00
2011,08,17,01,58,12.00
2011,08,17,01,59,12.00
2011,08,17,02,00,11.90
2011,08,17,02,01,11.90
2011,08,17,02,02,11.90
2011,08,17,02,03,11.90
2011,08,17,02,04,11.90
2011,08,17,02,05,11.90
2011,08,17,02,06,11.90
2011,08,17,02,07,11.90
2011,08,17,02,08,11.90
2011,08,17,02,09,11.90
2011,08,17,02,10,11.90
2011,08,17,02,11,11.90
2011,08,17,02,12,11.90
2011,08,17,02,13,11.90
2011,08,17,02,14,11.90
2011,08,17,02,15,11.90
2011,08,17,02,16,11.90
2011,08,17,02,17,11.90
2011,08,17,02,18,11.90
2011,08,17,02,19,11.90
2011,08,17,02,20,11.90
2011,08,17,02,21,11.80
2011,08,17,02,22,11.80
2011,08,17,02,23,11.80
2011,08,17,02,24,11.80
2011,08,17,02,25,11.80
2011,08,17,02,26,11.80
2011,08,17,02,27,11.80
2011,08,17,02,28,11.80
2011,08,17,02,29,11.80
2011,08,17,02,30,11.80
2011,08,17,02,31,11.80
2011,08,17,02,32,11.80
2011,08,17,02,33,11.80
2011,08,17,02,34,11.80
2011,08,17,02,35,11.80
2011,08,17,02,36,11.80
2011,08,17,02,37,11.80
2011,08,17,02,38,11.80
2011,08,17,02,39,11.80
2011,08,17,02,40,11.70
2011,08,17,02,41,11.70
2011,08,17,02,42,11.70
2011,08,17,02,43,11.70
2011,08,17,02,44,11.70
2011,08,17,02,45,11.70
2011,08,17,02,46,11.70
2011,08,17,02,47,11.70
2011,08,17,02,48,11.70
2011,08,17,02,49,11.70
2011,08,17,02,50,11.70
2011,08,17,02,51,11.70
2011,08,17,02,52,11.70
2011,08,17,02,53,11.60
2011,08,17,02,54,11.60
2011,08,17,02,55,11.60
2011,08,17,02,56,11.60
2011,08,17,02,57,11.60
2011,08,17,02,58,11.60
2011,08,17,02,59,11.60
2011,08,17,03,00,11.60
2011,08,17,03,01,11.60
2011,08,17,03,02,11.60
2011,08,17,03,03,11.60
2011,08,17,03,04,11.60
2011,08,17,03,05,11.50
2011,08,17,03,06,11.50
2011,08,17,03,07,11.50
2011,08,17,03,08,11.50
2011,08,17,03,09,11.50
2011,08,17,03,10,11.50
2011,08,17,03,11,11.50
2011,08,17,03,12,11.40
2011,08,17,03,13,11.40
2011,08,17,03,14,11.40
2011,08,17,03,15,11.40
2011,08,17,03,16,11.40
2011,08,17,03,17,11.40
2011,08,17,03,18,11.40
2011,08,17,03,19,11.40
2011,08,17,03,20,11.30
2011,08,17,03,21,11.30
2011,08,17,03,22,11.30
2011,08,17,03,23,11.30
2011,08,17,03,24,11.30
2011,08,17,03,25,11.30
2011,08,17,03,26,11.30
2011,08,17,03,27,11.30
2011,08,17,03,28,11.30
2011,08,17,03,29,11.30
2011,08,17,03,30,11.30
2011,08,17,03,31,11.30
2011,08,17,03,32,11.30
2011,08,17,03,33,11.30
2011,08,17,03,34,11.30
2011,08,17,03,35,11.30
2011,08,17,03,36,11.30
2011,08,17,03,37,11.30
2011,08,17,03,38,11.20
2011,08,17,03,39,11.20
2011,08,17,03,40,11.20
2011,08,17,03,41,11.20
2011,08,17,03,42,11.20
2011,08,17,03,43,11.20
2011,08,17,03,44,11.20
2011,08,17,03,45,11.20
2011,08,17,03,46,11.20
2011,08,17,03,47,11.20
2011,08,17,03,48,11.20
2011,08,17,03,49,11.20
2011,08,17,03,50,11.10
2011,08,17,03,51,11.10
2011,08,17,03,52,11.10
2011,08,17,03,53,11.10
2011,08,17,03,54,11.10
2011,08,17,03,55,11.10
2011,08,17,03,56,11.10
2011,08,17,03,57,11.10
2011,08,17,03,58,11.10
2011,08,17,03,59,11.10
2011,08,17,04,00,11.10
2011,08,17,04,01,11.10
2011,08,17,04,02,11.10
2011,08,17,04,03,11.10
2011,08,17,04,04,11.10
2011,08,17,04,05,11.10
2011,08,17,04,06,11.10
2011,08,17,04,07,11.10
2011,08,17,04,08,11.10
2011,08,17,04,09,11.10
2011,08,17,04,10,11.10
2011,08,17,04,11,11.10
2011,08,17,04,12,11.10
2011,08,17,04,13,11.10
2011,08,17,04,14,11.00
2011,08,17,04,15,11.00
2011,08,17,04,16,11.00
2011,08,17,04,17,11.00
2011,08,17,04,18,11.00
2011,08,17,04,19,11.00
2011,08,17,04,20,11.00
2011,08,17,04,21,11.00
2011,08,17,04,22,11.00
2011,08,17,04,23,11.00
2011,08,17,04,24,11.00
2011,08,17,04,25,10.90
2011,08,17,04,26,10.90
2011,08,17,04,27,10.90
2011,08,17,04,28,10.90
2011,08,17,04,29,10.90
2011,08,17,04,30,10.90
2011,08,17,04,31,10.90
2011,08,17,04,32,10.90
2011,08,17,04,33,10.90
2011,08,17,04,34,10.90
2011,08,17,04,35,10.90
2011,08,17,04,36,10.90
2011,08,17,04,37,10.90
2011,08,17,04,38,10.90
2011,08,17,04,39,10.90
2011,08,17,04,40,10.90
2011,08,17,04,41,10.90
2011,08,17,04,42,10.90
2011,08,17,04,43,10.90
2011,08,17,04,44,10.90
2011,08,17,04,45,10.90
2011,08,17,04,46,10.90
2011,08,17,04,47,10.90
2011,08,17,04,48,10.90
2011,08,17,04,49,10.90
2011,08,17,04,50,10.90
2011,08,17,04,51,10.90
2011,08,17,04,52,10.90
2011,08,17,04,53,11.00
2011,08,17,04,54,11.00
2011,08,17,04,55,11.10
2011,08,17,04,56,11.10
2011,08,17,04,57,11.10
2011,08,17,04,58,11.10
2011,08,17,04,59,11.10
2011,08,17,05,00,11.20
2011,08,17,05,01,11.20
2011,08,17,05,02,11.30
2011,08,17,05,03,11.30
2011,08,17,05,04,11.40
2011,08,17,05,05,11.40
2011,08,17,05,06,11.40
2011,08,17,05,07,11.50
2011,08,17,05,08,11.50
2011,08,17,05,09,11.60
2011,08,17,05,10,11.60
2011,08,17,05,11,11.60
2011,08,17,05,12,11.60
2011,08,17,05,13,11.60
2011,08,17,05,14,11.60
2011,08,17,05,15,11.60
2011,08,17,05,16,11.70
2011,08,17,05,17,11.70
2011,08,17,05,18,11.70
2011,08,17,05,19,11.70
2011,08,17,05,20,11.70
2011,08,17,05,21,11.70
2011,08,17,05,22,11.70
2011,08,17,05,23,11.70
2011,08,17,05,24,11.70
2011,08,17,05,25,11.80
2011,08,17,05,26,11.80
2011,08,17,05,27,11.80
2011,08,17,05,28,11.80
2011,08,17,05,29,11.80
2011,08,17,05,30,11.80
2011,08,17,05,31,11.70
2011,08,17,05,32,11.70
2011,08,17,05,33,11.70
2011,08,17,05,34,11.70
2011,08,17,05,35,11.70
2011,08,17,05,36,11.70
2011,08,17,05,37,11.70
2011,08,17,05,38,11.60
2011,08,17,05,39,11.70
2011,08,17,05,40,11.70
2011,08,17,05,41,11.70
2011,08,17,05,42,11.70
2011,08,17,05,43,11.60
2011,08,17,05,44,11.70
2011,08,17,05,45,11.70
2011,08,17,05,46,11.60
2011,08,17,05,47,11.60
2011,08,17,05,48,11.60
2011,08,17,05,49,11.70
2011,08,17,05,50,11.70
2011,08,17,05,51,11.70
2011,08,17,05,52,11.70
2011,08,17,05,53,11.70
2011,08,17,05,54,11.70
2011,08,17,05,55,11.70
2011,08,17,05,56,11.60
2011,08,17,05,57,11.60
2011,08,17,05,58,11.60
2011,08,17,05,59,11.60
2011,08,17,06,00,11.60
2011,08,17,06,01,11.60
2011,08,17,06,02,11.60
2011,08,17,06,03,11.60
2011,08,17,06,04,11.70
2011,08,17,06,05,11.70
2011,08,17,06,06,11.80
2011,08,17,06,07,11.80
2011,08,17,06,08,11.90
2011,08,17,06,09,11.90
2011,08,17,06,10,12.00
2011,08,17,06,11,12.10
2011,08,17,06,12,12.10
2011,08,17,06,13,12.20
2011,08,17,06,14,12.20
2011,08,17,06,15,12.30
2011,08,17,06,16,12.30
2011,08,17,06,17,12.30
2011,08,17,06,18,12.30
2011,08,17,06,19,12.40
2011,08,17,06,20,12.40
2011,08,17,06,21,12.40
2011,08,17,06,22,12.40
2011,08,17,06,23,12.40
2011,08,17,06,24,12.40
2011,08,17,06,25,12.40
2011,08,17,06,26,12.40
2011,08,17,06,27,12.40
2011,08,17,06,28,12.40
2011,08,17,06,29,12.40
2011,08,17,06,30,12.50
2011,08,17,06,31,12.50
2011,08,17,06,32,12.50
2011,08,17,06,33,12.50
2011,08,17,06,34,12.50
2011,08,17,06,35,12.50
2011,08,17,06,36,12.50
2011,08,17,06,37,12.50
2011,08,17,06,38,12.50
2011,08,17,06,39,12.50
2011,08,17,06,40,12.50
2011,08,17,06,41,12.50
2011,08,17,06,42,12.50
2011,08,17,06,43,12.50
2011,08,17,06,44,12.60
2011,08,17,06,45,12.60
2011,08,17,06,46,12.60
2011,08,17,06,47,12.60
2011,08,17,06,48,12.60
2011,08,17,06,49,12.60
2011,08,17,06,50,12.60
2011,08,17,06,51,12.60
2011,08,17,06,52,12.50
2011,08,17,06,53,12.50
2011,08,17,06,54,12.40
2011,08,17,06,55,12.40
2011,08,17,06,56,12.40
2011,08,17,06,57,12.30
2011,08,17,06,58,12.30
2011,08,17,06,59,12.30
2011,08,17,07,00,12.30
2011,08,17,07,01,12.30
2011,08,17,07,02,12.20
2011,08,17,07,03,12.20
2011,08,17,07,04,12.20
2011,08,17,07,05,12.20
2011,08,17,07,06,12.20
2011,08,17,07,07,12.20
2011,08,17,07,08,12.20
2011,08,17,07,09,12.20
2011,08,17,07,10,12.30
2011,08,17,07,11,12.30
2011,08,17,07,12,12.30
2011,08,17,07,13,12.30
2011,08,17,07,14,12.40
2011,08,17,07,15,12.50
2011,08,17,07,16,12.50
2011,08,17,07,17,12.60
2011,08,17,07,18,12.60
2011,08,17,07,19,12.70
2011,08,17,07,20,12.80
2011,08,17,07,21,12.80
2011,08,17,07,22,13.00
2011,08,17,07,23,13.00
2011,08,17,07,24,13.20
2011,08,17,07,25,13.30
2011,08,17,07,26,13.40
2011,08,17,07,27,13.50
2011,08,17,07,28,13.60
2011,08,17,07,29,13.70
2011,08,17,07,30,13.80
2011,08,17,07,31,13.90
2011,08,17,07,32,14.00
2011,08,17,07,33,14.10
2011,08,17,07,34,14.20
2011,08,17,07,35,14.30
2011,08,17,07,36,14.40
2011,08,17,07,37,14.50
2011,08,17,07,38,14.60
2011,08,17,07,39,14.70
2011,08,17,07,40,14.80
2011,08,17,07,41,14.90
2011,08,17,07,42,15.00
2011,08,17,07,43,15.00
2011,08,17,07,44,15.00
2011,08,17,07,45,15.10
2011,08,17,07,46,15.20
2011,08,17,07,47,15.30
2011,08,17,07,48,15.30
2011,08,17,07,49,15.40
2011,08,17,07,50,15.40
2011,08,17,07,51,15.40
2011,08,17,07,52,15.50
2011,08,17,07,53,15.50
2011,08,17,07,54,15.60
2011,08,17,07,55,15.60
2011,08,17,07,56,15.60
2011,08,17,07,57,15.70
2011,08,17,07,58,15.70
2011,08,17,07,59,15.80
2011,08,17,08,00,15.80
2011,08,17,08,01,15.80
2011,08,17,08,02,15.90
2011,08,17,08,03,16.00
2011,08,17,08,04,16.00
2011,08,17,08,05,16.10
2011,08,17,08,06,16.10
2011,08,17,08,07,16.20
2011,08,17,08,08,16.30
2011,08,17,08,09,16.40
2011,08,17,08,10,16.50
2011,08,17,08,11,16.50
2011,08,17,08,12,16.60
2011,08,17,08,13,16.70
2011,08,17,08,14,16.80
2011,08,17,08,15,16.90
2011,08,17,08,16,17.00
2011,08,17,08,17,17.10
2011,08,17,08,18,17.10
2011,08,17,08,19,17.20
2011,08,17,08,20,17.20
2011,08,17,08,21,17.30
2011,08,17,08,22,17.30
2011,08,17,08,23,17.30
2011,08,17,08,24,17.40
2011,08,17,08,25,17.50
2011,08,17,08,26,17.50
2011,08,17,08,27,17.60
2011,08,17,08,28,17.60
2011,08,17,08,29,17.70
2011,08,17,08,30,17.70
2011,08,17,08,31,17.70
2011,08,17,08,32,17.70
2011,08,17,08,33,17.70
2011,08,17,08,34,17.70
2011,08,17,08,35,17.80
2011,08,17,08,36,17.80
2011,08,17,08,37,17.90
2011,08,17,08,38,17.90
2011,08,17,08,39,18.00
2011,08,17,08,40,18.00
2011,08,17,08,41,18.10
2011,08,17,08,42,18.10
2011,08,17,08,43,18.20
2011,08,17,08,44,18.30
2011,08,17,08,45,18.40
2011,08,17,08,46,18.50
2011,08,17,08,52,19.00
2011,08,17,08,53,19.00
2011,08,17,08,54,19.00
2011,08,17,08,55,19.00
2011,08,17,08,56,18.80
2011,08,17,08,57,18.80
2011,08,17,08,58,18.70
2011,08,17,08,59,18.70
2011,08,17,09,00,18.70
2011,08,17,09,01,18.80
2011,08,17,09,02,18.80
2011,08,17,09,03,18.90
2011,08,17,09,04,18.90
2011,08,17,09,05,19.00
2011,08,17,09,06,19.00
2011,08,17,09,07,19.00
2011,08,17,09,08,19.10
2011,08,17,09,09,19.10
2011,08,17,09,10,19.20
2011,08,17,09,11,19.30
2011,08,17,09,12,19.30
2011,08,17,09,13,19.40
2011,08,17,09,14,19.40
2011,08,17,09,15,19.40
2011,08,17,09,16,19.40
2011,08,17,09,17,19.30
2011,08,17,09,18,19.30
2011,08,17,09,19,19.30
2011,08,17,09,20,19.30
2011,08,17,09,21,19.30
2011,08,17,09,22,19.20
2011,08,17,09,23,19.20
2011,08,17,09,24,19.20
2011,08,17,09,25,19.30
2011,08,17,09,26,19.30
2011,08,17,09,27,19.30
2011,08,17,09,28,19.30
2011,08,17,09,29,19.30
2011,08,17,09,30,19.40
2011,08,17,09,31,19.30
2011,08,17,09,32,19.30
2011,08,17,09,33,19.30
2011,08,17,09,34,19.30
2011,08,17,09,35,19.30
2011,08,17,09,36,19.20
2011,08,17,09,37,19.20
2011,08,17,09,38,19.20
2011,08,17,09,39,19.20
2011,08,17,09,40,19.20
2011,08,17,09,41,19.30
2011,08,17,09,42,19.30
2011,08,17,09,43,19.20
2011,08,17,09,44,19.20
2011,08,17,09,45,19.10
2011,08,17,09,46,19.10
2011,08,17,09,47,19.10
2011,08,17,09,48,19.20
2011,08,17,09,49,19.30
2011,08,17,09,50,19.40
2011,08,17,09,51,19.50
2011,08,17,09,52,19.70
2011,08,17,09,53,19.80
2011,08,17,09,54,19.90
2011,08,17,09,55,20.00
2011,08,17,09,56,20.10
2011,08,17,09,57,20.20
2011,08,17,09,58,20.30
2011,08,17,09,59,20.20
2011,08,17,10,00,19.90
2011,08,17,10,01,19.90
2011,08,17,10,02,19.80
2011,08,17,10,03,19.60
2011,08,17,10,04,19.60
2011,08,17,10,05,19.50
2011,08,17,10,06,19.40
2011,08,17,10,07,19.20
2011,08,17,10,08,19.10
2011,08,17,10,09,19.00
2011,08,17,10,10,19.00
2011,08,17,10,11,19.10
2011,08,17,10,12,19.10
2011,08,17,10,13,19.00
2011,08,17,10,14,19.00
2011,08,17,10,15,19.10
2011,08,17,10,16,19.10
2011,08,17,10,17,19.20
2011,08,17,10,18,19.30
2011,08,17,10,19,19.40
2011,08,17,10,20,19.50
2011,08,17,10,21,19.50
2011,08,17,10,22,19.60
2011,08,17,10,23,19.60
2011,08,17,10,24,19.50
2011,08,17,10,25,19.50
2011,08,17,10,26,19.50
2011,08,17,10,27,19.40
2011,08,17,10,28,19.40
2011,08,17,10,29,19.30
2011,08,17,10,30,19.30
2011,08,17,10,31,19.30
2011,08,17,10,32,19.30
2011,08,17,10,33,19.30
2011,08,17,10,34,19.20
2011,08,17,10,35,19.20
2011,08,17,10,36,19.10
2011,08,17,10,37,19.00
2011,08,17,10,38,19.10
2011,08,17,10,39,19.10
2011,08,17,10,40,19.20
2011,08,17,10,41,19.20
2011,08,17,10,42,19.30
2011,08,17,10,43,19.30
2011,08,17,10,44,19.30
2011,08,17,10,45,19.30
2011,08,17,10,46,19.30
2011,08,17,10,47,19.30
2011,08,17,10,48,19.20
2011,08,17,10,49,19.10
2011,08,17,10,50,19.10
2011,08,17,10,51,19.10
2011,08,17,10,52,19.10
2011,08,17,10,53,19.20
2011,08,17,10,54,19.20
2011,08,17,10,55,19.20
2011,08,17,10,56,19.10
2011,08,17,10,57,19.10
2011,08,17,10,58,19.10
2011,08,17,10,59,19.10
2011,08,17,11,00,19.20
2011,08,17,11,01,19.20
2011,08,17,11,02,19.20
2011,08,17,11,03,19.20
2011,08,17,11,04,19.20
2011,08,17,11,05,19.20
2011,08,17,11,06,19.20
2011,08,17,11,07,19.20
2011,08,17,11,08,19.20
2011,08,17,11,09,19.20
2011,08,17,11,10,19.20
2011,08,17,11,11,19.20
2011,08,17,11,12,19.20
2011,08,17,11,13,19.10
2011,08,17,11,14,19.10
2011,08,17,11,15,19.00
2011,08,17,11,16,19.00
2011,08,17,11,17,19.00
2011,08,17,11,18,19.10
2011,08,17,11,19,19.20
2011,08,17,11,20,19.20
2011,08,17,11,21,19.30
2011,08,17,11,22,19.40
2011,08,17,11,23,19.40
2011,08,17,11,24,19.30
2011,08,17,11,25,19.20
2011,08,17,11,26,19.20
2011,08,17,11,27,19.20
2011,08,17,11,28,19.20
2011,08,17,11,29,19.20
2011,08,17,11,30,19.20
2011,08,17,11,31,19.20
2011,08,17,11,32,19.30
2011,08,17,11,33,19.30
2011,08,17,11,34,19.40
2011,08,17,11,35,19.50
2011,08,17,11,36,19.50
2011,08,17,11,37,19.60
2011,08,17,11,38,19.70
2011,08,17,11,39,19.70
2011,08,17,11,40,19.60
2011,08,17,11,41,19.50
2011,08,17,11,42,19.50
2011,08,17,11,43,19.50
2011,08,17,11,44,19.50
2011,08,17,11,45,19.40
2011,08,17,11,46,19.30
2011,08,17,11,47,19.30
2011,08,17,11,48,19.30
2011,08,17,11,49,19.40
2011,08,17,11,50,19.40
2011,08,17,11,51,19.30
2011,08,17,11,52,19.30
2011,08,17,11,53,19.30
2011,08,17,11,54,19.30
2011,08,17,11,55,19.30
2011,08,17,11,56,19.30
2011,08,17,11,57,19.20
2011,08,17,11,58,19.20
2011,08,17,11,59,19.30
2011,08,17,12,00,19.30
2011,08,17,12,01,19.40
2011,08,17,12,02,19.50
2011,08,17,12,03,19.70
2011,08,17,12,04,19.80
2011,08,17,12,05,19.80
2011,08,17,12,06,19.90
2011,08,17,12,07,19.80
2011,08,17,12,08,19.80
2011,08,17,12,09,19.80
2011,08,17,12,10,19.70
2011,08,17,12,11,19.70
2011,08,17,12,12,19.60
2011,08,17,12,13,19.40
2011,08,17,12,14,19.30
2011,08,17,12,15,19.30
2011,08,17,12,16,19.20
2011,08,17,12,17,19.20
2011,08,17,12,18,19.10
2011,08,17,12,19,19.10
2011,08,17,12,20,19.20
2011,08,17,12,21,19.20
2011,08,17,12,22,19.20
2011,08,17,12,23,19.20
2011,08,17,12,24,19.20
2011,08,17,12,25,19.10
2011,08,17,12,26,19.10
2011,08,17,12,27,19.20
2011,08,17,12,28,19.20
2011,08,17,12,29,19.20
2011,08,17,12,30,19.20
2011,08,17,12,31,19.20
2011,08,17,12,32,19.20
2011,08,17,12,33,19.20
2011,08,17,12,34,19.20
2011,08,17,12,35,19.20
2011,08,17,12,36,19.20
2011,08,17,12,37,19.20
2011,08,17,12,38,19.20
2011,08,17,12,39,19.30
2011,08,17,12,40,19.40
2011,08,17,12,41,19.50
2011,08,17,12,42,19.60
2011,08,17,12,43,19.60
2011,08,17,12,44,19.70
2011,08,17,12,45,19.80
2011,08,17,12,46,19.80
2011,08,17,12,47,19.80
2011,08,17,12,48,19.80
2011,08,17,12,49,19.70
2011,08,17,12,50,19.50
2011,08,17,12,51,19.30
2011,08,17,12,52,19.20
2011,08,17,12,53,19.20
2011,08,17,12,54,19.20
2011,08,17,12,55,19.30
2011,08,17,12,56,19.40
2011,08,17,12,57,19.50
2011,08,17,12,58,19.60
2011,08,17,12,59,19.60
2011,08,17,13,00,19.60
2011,08,17,13,01,19.70
2011,08,17,13,02,19.80
2011,08,17,13,03,19.90
2011,08,17,13,04,20.00
2011,08,17,13,05,20.00
2011,08,17,13,06,20.10
2011,08,17,13,07,20.10
2011,08,17,13,08,20.10
2011,08,17,13,09,20.10
2011,08,17,13,10,20.10
2011,08,17,13,11,20.00
2011,08,17,13,12,20.00
2011,08,17,13,13,19.90
2011,08,17,13,14,19.90
2011,08,17,13,15,19.90
2011,08,17,13,16,19.80
2011,08,17,13,17,19.80
2011,08,17,13,18,19.80
2011,08,17,13,19,19.70
2011,08,17,13,20,19.70
2011,08,17,13,21,19.70
2011,08,17,13,22,19.60
2011,08,17,13,23,19.40
2011,08,17,13,24,19.30
2011,08,17,13,25,19.10
2011,08,17,13,26,19.10
2011,08,17,13,27,19.10
2011,08,17,13,28,19.10
2011,08,17,13,29,19.10
2011,08,17,13,30,19.00
2011,08,17,13,31,19.00
2011,08,17,13,32,19.00
2011,08,17,13,33,18.90
2011,08,17,13,34,19.00
2011,08,17,13,35,19.00
2011,08,17,13,36,19.10
2011,08,17,13,37,19.10
2011,08,17,13,38,19.10
2011,08,17,13,39,19.10
2011,08,17,13,40,19.10
2011,08,17,13,41,19.10
2011,08,17,13,42,19.10
2011,08,17,13,43,19.10
2011,08,17,13,44,19.10
2011,08,17,13,45,19.10
2011,08,17,13,46,19.20
2011,08,17,13,47,19.20
2011,08,17,13,48,19.20
2011,08,17,13,49,19.30
2011,08,17,13,50,19.30
2011,08,17,13,51,19.30
2011,08,17,13,52,19.30
2011,08,17,13,53,19.40
2011,08,17,13,54,19.40
2011,08,17,13,55,19.50
2011,08,17,13,56,19.50
2011,08,17,13,57,19.40
2011,08,17,13,58,19.50
2011,08,17,13,59,19.60
2011,08,17,14,00,19.70
2011,08,17,14,01,19.70
2011,08,17,14,02,19.80
2011,08,17,14,03,19.80
2011,08,17,14,04,19.70
2011,08,17,14,05,19.70
2011,08,17,14,06,19.70
2011,08,17,14,07,19.70
2011,08,17,14,08,19.70
2011,08,17,14,09,19.60
2011,08,17,14,10,19.50
2011,08,17,14,11,19.50
2011,08,17,14,12,19.50
2011,08,17,14,13,19.60
2011,08,17,14,14,19.60
2011,08,17,14,15,19.70
2011,08,17,14,16,19.80
2011,08,17,14,17,19.90
2011,08,17,14,18,20.00
2011,08,17,14,19,20.10
2011,08,17,14,20,20.20
2011,08,17,14,21,20.20
2011,08,17,14,22,20.30
2011,08,17,14,23,20.30
2011,08,17,14,24,20.30
2011,08,17,14,25,20.30
2011,08,17,14,26,20.20
2011,08,17,14,27,20.20
2011,08,17,14,28,20.10
2011,08,17,14,29,20.00
2011,08,17,14,30,20.00
2011,08,17,14,31,20.00
2011,08,17,14,32,19.90
2011,08,17,14,33,20.00
2011,08,17,14,34,20.00
2011,08,17,14,35,20.00
2011,08,17,14,36,20.00
2011,08,17,14,37,20.00
2011,08,17,14,38,20.00
2011,08,17,14,39,20.00
2011,08,17,14,40,20.10
2011,08,17,14,41,20.20
2011,08,17,14,42,20.20
2011,08,17,14,43,20.30
2011,08,17,14,44,20.40
2011,08,17,14,45,20.40
2011,08,17,14,46,20.30
2011,08,17,14,47,20.40
2011,08,17,14,48,20.40
2011,08,17,14,49,20.40
2011,08,17,14,50,20.40
2011,08,17,14,51,20.40
2011,08,17,14,52,20.50
2011,08,17,14,53,20.60
2011,08,17,14,54,20.70
2011,08,17,14,55,20.70
2011,08,17,14,56,20.70
2011,08,17,14,57,20.70
2011,08,17,14,58,20.80
2011,08,17,14,59,20.80
2011,08,17,15,00,20.80
2011,08,17,15,01,20.80
2011,08,17,15,02,20.80
2011,08,17,15,03,20.90
2011,08,17,15,04,20.90
2011,08,17,15,05,20.90
2011,08,17,15,06,20.80
2011,08,17,15,07,20.70
2011,08,17,15,08,20.60
2011,08,17,15,09,20.40
2011,08,17,15,10,20.40
2011,08,17,15,11,20.30
2011,08,17,15,12,20.30
2011,08,17,15,13,20.30
2011,08,17,15,14,20.40
2011,08,17,15,15,20.40
2011,08,17,15,16,20.50
2011,08,17,15,17,20.60
2011,08,17,15,18,20.60
2011,08,17,15,19,20.70
2011,08,17,15,20,20.70
2011,08,17,15,21,20.70
2011,08,17,15,22,20.70
2011,08,17,15,23,20.70
2011,08,17,15,24,20.70
2011,08,17,15,25,20.70
2011,08,17,15,26,20.70
2011,08,17,15,27,20.70
2011,08,17,15,28,20.70
2011,08,17,15,29,20.70
2011,08,17,15,30,20.70
2011,08,17,15,31,20.50
2011,08,17,15,32,20.50
2011,08,17,15,33,20.40
2011,08,17,15,34,20.40
2011,08,17,15,35,20.30
2011,08,17,15,36,20.30
2011,08,17,15,37,20.20
2011,08,17,15,38,20.20
2011,08,17,15,39,20.30
2011,08,17,15,40,20.30
2011,08,17,15,41,20.40
2011,08,17,15,42,20.40
2011,08,17,15,43,20.50
2011,08,17,15,44,20.50
2011,08,17,15,45,20.40
2011,08,17,15,46,20.40
2011,08,17,15,47,20.40
2011,08,17,15,48,20.40
2011,08,17,15,49,20.50
2011,08,17,15,50,20.50
2011,08,17,15,51,20.50
2011,08,17,15,52,20.40
2011,08,17,15,53,20.40
2011,08,17,15,54,20.40
2011,08,17,15,55,20.50
2011,08,17,15,56,20.60
2011,08,17,15,57,20.70
2011,08,17,15,58,20.70
2011,08,17,15,59,20.70
2011,08,17,16,00,20.70
2011,08,17,16,01,20.80
2011,08,17,16,02,20.80
2011,08,17,16,03,20.90
2011,08,17,16,04,21.00
2011,08,17,16,05,21.10
2011,08,17,16,06,21.20
2011,08,17,16,07,21.20
2011,08,17,16,08,21.20
2011,08,17,16,09,21.30
2011,08,17,16,10,21.30
2011,08,17,16,11,21.40
2011,08,17,16,12,21.40
2011,08,17,16,13,21.40
2011,08,17,16,14,21.40
2011,08,17,16,15,21.40
2011,08,17,16,16,21.40
2011,08,17,16,17,21.40
2011,08,17,16,18,21.40
2011,08,17,16,19,21.50
2011,08,17,16,20,21.60
2011,08,17,16,21,21.60
2011,08,17,16,22,21.60
2011,08,17,16,23,21.70
2011,08,17,16,24,21.70
2011,08,17,16,25,21.70
2011,08,17,16,26,21.70
2011,08,17,16,27,21.70
2011,08,17,16,28,21.60
2011,08,17,16,29,21.50
2011,08,17,16,30,21.50
2011,08,17,16,31,21.40
2011,08,17,16,32,21.30
2011,08,17,16,33,21.20
2011,08,17,16,34,21.10
2011,08,17,16,35,21.10
2011,08,17,16,36,21.10
2011,08,17,16,37,21.10
2011,08,17,16,38,21.20
2011,08,17,16,39,21.20
2011,08,17,16,40,21.20
2011,08,17,16,41,21.20
2011,08,17,16,42,21.20
2011,08,17,16,43,21.30
2011,08,17,16,44,21.30
2011,08,17,16,45,21.40
2011,08,17,16,46,21.30
2011,08,17,16,47,21.30
2011,08,17,16,48,21.30
2011,08,17,16,49,21.30
2011,08,17,16,50,21.30
2011,08,17,16,51,21.20
2011,08,17,16,52,21.10
2011,08,17,16,53,21.10
2011,08,17,16,54,21.00
2011,08,17,16,55,21.00
2011,08,17,16,56,21.10
2011,08,17,16,57,21.10
2011,08,17,16,58,21.10
2011,08,17,16,59,21.10
2011,08,17,17,00,21.10
2011,08,17,17,01,21.10
2011,08,17,17,02,21.10
2011,08,17,17,03,21.10
2011,08,17,17,04,21.10
2011,08,17,17,05,21.20
2011,08,17,17,06,21.20
2011,08,17,17,07,21.20
2011,08,17,17,08,21.30
2011,08,17,17,09,21.30
2011,08,17,17,10,21.30
2011,08,17,17,11,21.40
2011,08,17,17,12,21.50
2011,08,17,17,13,21.50
2011,08,17,17,14,21.60
2011,08,17,17,15,21.60
2011,08,17,17,16,21.70
2011,08,17,17,17,21.70
2011,08,17,17,18,21.70
2011,08,17,17,19,21.80
2011,08,17,17,20,21.80
2011,08,17,17,21,21.80
2011,08,17,17,22,21.80
2011,08,17,17,23,21.70
2011,08,17,17,24,21.60